ONEWEB-0067, 45425

Orbit data source: Space-Track

ONEWEB-0067, 45425 is a payload satellite owned by One Web (UK) in LEO that was launched on Sat, 21 Mar 2020 UTC via a SOYUZ-2-1B launch vehicle from the Tyuratam Missile And Space Complex (TTMTR). Payload-class satellites include a variety of spacecraft equipped with specific instruments for various scientific and technological missions. These include communications satellites like Starlink; space stations such as the ISS; scientific satellites like the Hubble; Earth observation satellites from companies like Planet Labs, Umbra, and HawkEye 360; GPS; miniature CubeSats for education and research; and military/defense satellites.

Loading next visibility...
Identifier
45425, 2020-020B
Orbit
LEO
Last TLE update
3 hours ago
Origin
Manufacturer
One Web
Mission
Operational Commercial Communications
Bus & Motor
ARROW, Unknown motor
Mass
148 kg wet, ~140 kg dry
Launch date (UTC)
2020-03-21 (5 years ago)
Launch vehicle
SOYUZ-2-1B
Launch site
Tyuratam Missile And Space Complex (TTMTR)
Object type
Payload
Rocket body
Debris
Shape & HBR
Trap Box + 2 Pan, 5 m
Radar Cross Section
2.957 m², Large (>1 m²)

Expand to show TLE details & history

TLE from 3 hours ago
0 ONEWEB-0067
1 45425U 20020B   25163.52626935 -.00000509  00000-0 -14726-2 0  9997
2 45425  87.8828  94.6597 0001768  79.1938 280.9389 13.11416926254297
Epoch: 2025-06-12T12:37Z
TLE epoch observation values (Epoch: 2025-06-12T12:37:49.671Z)
Latitude
-0.00003°
Longitude
4.10958°
Altitude
1,220.317 km
Speed
7.244 km/s
True Right ascension
06h 18m 38s
True Declination
0° 00' 00"
Sunlit
Object was in daylight at epoch
Visualization orbit readout
Latitude
-49.99221°
Longitude
1.56954°
Altitude
1,237.948 km
Speed
7.235 km/s
Apparent Right ascension
10h 17m 22s
Apparent Declination
-65° 14' 04"
Sunlit
Object is in daylight
Visualization observer readout
Local Sidereal Time
02:26:47
Azimuth
147.014° SSE
Elevation
-47.033°
Doppler factor
1
Orbital elements
Apogee altitude
1,216.143 km
Perigee altitude
1,213.459 km
Semi-major axis
7,592.938 km
Eccentricity
0.00018
Inclination
87.8828°
RAAN
94.6597°
Arg. of periapsis
79.1938°
True anomaly
Unknown
Mean anomaly
280.9389°
Eccentric anomaly
Unknown
Mean motion
3.28041 °/min
Orbital period
109.74 mins
BSTAR
-0.0014726
Loading maneuver chart data...
Loading SW <> Apogee altitude chart data...
Loading historical data...
Loading historical data...
Loading historical data...
Loading historical data...
Loading historical data...
Loading historical data...
Loading historical data...

ONEWEB-0067 Visibility forecast

Observer location: undefined°, undefined°

Span
Click to sort rows by Start time (UTC) header in descending order
Start Az.
Max El. time (UTC)
Max El. Az.
Max El.
End time (UTC)
End Az.
8 mins2025-06-12 18:16:19.681Z109.16° ESE2025-06-12 18:20:19.681Z74.451° E17.018°2025-06-12 18:24:19.681Z38.778° NE
13 mins2025-06-12 20:03:19.681Z184.798° SSW2025-06-12 20:09:19.681Z257.576° W44.458°2025-06-12 20:16:19.681Z357.915° N
4 mins2025-06-12 21:59:19.681Z279.766° WNW2025-06-12 22:00:19.681Z288.248° WNW12.157°2025-06-12 22:03:19.681Z312.927° NW
5 mins2025-06-13 05:46:19.681Z54.5° ENE2025-06-13 05:48:19.681Z71.863° E13.275°2025-06-13 05:51:19.681Z96.919° ESE
13 mins2025-06-13 07:33:19.681Z1.372° NNE2025-06-13 07:39:19.681Z115.091° SE44.831°2025-06-13 07:46:19.681Z178.716° S
6 mins2025-06-13 09:25:19.681Z312.826° NW2025-06-13 09:28:19.681Z285.555° WNW15.798°2025-06-13 09:31:19.681Z259.171° W
|